User: anonymous   Login
Location: Goheenville
(40.9070°N, 79.3720°W)
Time: 11:11:49
(UTC-05:00)
Language:

NOAA 11 - Orbit

View from above orbital plane
View from above orbital plane
View from above satellite
View from above satellite

Ground track
Ground track

The orbit data is extracted from the following two-line orbital elements,

1 19531U 88089A   14327.31466103  .00000042  00000-0  43515-4 0   554
2 19531 098.6681 041.8270 0011180 197.7490 162.3294 14.15112129350247
Epoch (UTC): 23 November 2014 07:33:06
Eccentricity: 0.0011180
inclination: 98.6681°
perigee height: 834 km
apogee height: 850 km
right ascension of ascending node: 41.8270°
argument of perigee: 197.7490°
revolutions per day: 14.15112129
mean anomaly at epoch: 162.3294°
orbit number at epoch: 35024

The dashed part of the orbit path shows where the satellite is in the earth's shadow,  

DLR